OBJECT U, 68998

Orbit data source: Space-Track

You're viewing an Uncataloged Satellite

Recently launched and/or uncataloged satellites may have evolving metadata. Metadata may include but not limited to: Owner, Maufacturer, Bus, Motor, and Mission.

OBJECT U, 68998 is a satellite in SSO that was launched on Sun, 03 May 2026 UTC launched from the Air Force Western Test Range (AFWTR). Unknown objects in Earth's orbit typically refer to objects detected orbiting the Earth but have not yet been identified or cataloged. These objects could be anything from previously untracked satellites, spent rocket stages, debris from satellite collisions, or even natural meteoroids temporarily captured by Earth's gravity.

Loading next visibility...
Identifier
68998, 2026-100U
Orbit
SSO
Country
Flag of TBDTBD
Related business
None
Manufacturer
Unknown
Mission
Operational spacecraft
Bus & Motor
Unknown
Mass
Unknown
Launch date (UTC)
2026-05-03 (1 week ago)
Launch vehicle
Unknown
Launch site
Air Force Western Test Range (AFWTR)
Object type
Unknown
Shape & HBR
Unknown
Radar Cross Section
RCS unknown

Expand to show TLE details & history
Last TLE update: 7 hours ago

TLE from 7 hours ago
0 OBJECT U
1 68998U 26100U   26130.16668980  .00039621  00000-0  35517-2 0  9999
2 68998  97.7005  27.1669 0017796 296.7495  28.8181 14.95524494  1302
Epoch: 2026-05-10T04:00Z
TLE epoch observation values (Epoch: 2026-05-10T04:00:01.998Z)
Latitude
-34.25053°
Longitude
104.43847°
Altitude
582.886 km
Speed
7.574 km/s
True Right ascension
02h 09m 40s
True Declination
-34° 05' 12"
Sunlit
Object was in daylight at epoch
Visualization orbit readout
Latitude
Unknown
Longitude
Unknown
Altitude
Unknown
Speed
Unknown
Apparent Right ascension
Unknown
Apparent Declination
Unknown
Sunlit
N/A
Visualization observer readout
Local Sidereal Time
18:58:10
Azimuth
Unknown
Elevation
Unknown
Doppler factor
Unknown
Orbital elements
Apogee altitude
590.135 km
Perigee altitude
565.378 km
Semi-major axis
6,955.894 km
Eccentricity
0.00178
Inclination
97.7005°
RAAN
27.1669°
Arg. of periapsis
296.7495°
True anomaly
28.91659°
Mean anomaly
28.8181°
Eccentric anomaly
28.86733°
Mean motion
3.74122 °/min
Orbital period
96.23 mins
BSTAR
0.0035517
Loading maneuver chart data...
Computing Atmospheric mass density...
Loading historical data...
Loading historical data...
Loading historical data...
Loading historical data...
Loading historical data...
Loading historical data...
Loading historical data...

Documentation

Showing up to 5 results
|